| time (UTC) | temp F | wind direction | speed MPH | gust MPH | rain 1hr in | rain 24hr in | rain mn in | humidity % | barometer mb |
| 20260502234829 | 0 | 0.0 | 1.0 | 0.00 | 0.00 | 0.00 | 1013.1 | ||
| 20260502233757 | 0 | 0.0 | 0.0 | 0.00 | 0.00 | 0.00 | 1013.2 | ||
| 20260502232625 | 0 | 0.0 | 0.0 | 0.00 | 0.00 | 0.00 | 1013.3 | ||
| 20260502231556 | 0 | 0.0 | 1.0 | 0.00 | 0.00 | 0.00 | 1013.4 | ||
| 20260502230527 | 0 | 0.0 | 1.0 | 0.00 | 0.00 | 0.00 | 1013.5 | ||
| 20260502225457 | 0 | 0.0 | 1.0 | 0.00 | 0.00 | 0.00 | 1013.6 | ||
| 20260502224428 | 0 | 0.0 | 0.0 | 0.00 | 0.00 | 0.00 | 1013.6 | ||
| 20260502223355 | 0 | 0.0 | 0.0 | 0.00 | 0.00 | 0.00 | 1013.6 | ||
| 20260502222326 | 0 | 0.0 | 1.0 | 0.00 | 0.00 | 0.00 | 1013.6 | ||
| 20260502221250 | 0 | 0.0 | 1.0 | 0.00 | 0.00 | 0.00 | 1013.7 | ||
| 20260502220218 | 0 | 0.0 | 0.0 | 0.00 | 0.00 | 0.00 | 1013.7 | ||
| 20260502215147 | 0 | 0.0 | 0.0 | 0.00 | 0.00 | 0.00 | 1013.7 | ||
| 20260502214115 | 0 | 0.0 | 0.0 | 0.00 | 0.00 | 0.00 | 1013.7 | ||
| 20260502213042 | 0 | 0.0 | 0.0 | 0.00 | 0.00 | 0.00 | 1013.8 | ||
| 20260502212012 | 0 | 0.0 | 0.0 | 0.00 | 0.00 | 0.00 | 1013.8 | ||
| 20260502210942 | 0 | 0.0 | 0.0 | 0.00 | 0.00 | 0.00 | 1014.0 | ||
| 20260502205911 | 0 | 0.0 | 1.0 | 0.00 | 0.00 | 0.00 | 1014.0 | ||
| 20260502204824 | 57 | 0.0 | 1.0 | 0.00 | 0.00 | 0.00 | 66 | 1014.0 | |
| 20260502203135 | 57 | 0.0 | 1.0 | 0.00 | 0.00 | 0.00 | 65 | 1014.1 | |
| 20260502202105 | 57 | 0.0 | 1.0 | 0.00 | 0.00 | 0.00 | 63 | 1014.1 | |
| 20260502201034 | 57 | 0.0 | 2.0 | 0.00 | 0.00 | 0.00 | 63 | 1014.2 | |
| 20260502200004 | 57 | 0.0 | 0.0 | 0.00 | 0.00 | 0.00 | 64 | 1014.2 | |
| 20260502194934 | 59 | 0.0 | 1.0 | 0.00 | 0.00 | 0.00 | 62 | 1014.1 | |
| 20260502193904 | 59 | 0.0 | 1.0 | 0.00 | 0.00 | 0.00 | 64 | 1014.1 | |
| 20260502192834 | 59 | 0.0 | 1.0 | 0.00 | 0.00 | 0.00 | 64 | 1014.0 | |
| 20260502191803 | 59 | 0.0 | 1.0 | 0.00 | 0.00 | 0.00 | 64 | 1013.8 | |
| 20260502190733 | 59 | 0.0 | 0.0 | 0.00 | 0.00 | 0.00 | 64 | 1013.9 | |
| 20260502185702 | 60 | 0.0 | 0.0 | 0.00 | 0.00 | 0.00 | 62 | 1013.7 | |
| 20260502184631 | 60 | 0.0 | 0.0 | 0.00 | 0.00 | 0.00 | 60 | 1013.5 | |
| 20260502183558 | 62 | 1.0 | 1.0 | 0.00 | 0.00 | 0.00 | 57 | 1013.5 | |
| 20260502182522 | 64 | 0.0 | 0.0 | 0.00 | 0.00 | 0.00 | 54 | 1013.5 | |
| 20260502181452 | 64 | 0.0 | 3.0 | 0.00 | 0.00 | 0.00 | 51 | 1013.6 | |
| 20260502180422 | 64 | 1.0 | 5.0 | 0.00 | 0.00 | 0.00 | 53 | 1013.6 | |
| 20260502170114 | 66 | 4.0 | 8.0 | 0.00 | 0.00 | 0.00 | 48 | 1013.9 | |
| 20260502164008 | 66 | 4.0 | 8.0 | 0.00 | 0.00 | 0.00 | 45 | 1014.2 | |
| 20260502162938 | 66 | 5.0 | 8.0 | 0.00 | 0.00 | 0.00 | 45 | 1014.3 | |
| 20260502161907 | 68 | 3.0 | 7.0 | 0.00 | 0.00 | 0.00 | 44 | 1014.3 | |
| 20260502160834 | 68 | 4.0 | 7.0 | 0.00 | 0.00 | 0.00 | 42 | 1014.5 | |
| 20260502151601 | 71 | 4.0 | 6.0 | 0.00 | 0.00 | 0.00 | 39 | 1014.8 | |
| 20260502150531 | 73 | 4.0 | 5.0 | 0.00 | 0.00 | 0.00 | 36 | 1015.0 | |
| 20260502122754 | 73 | 2.0 | 8.0 | 0.00 | 0.00 | 0.00 | 32 | 1016.8 | |
| 20260502121725 | 73 | 2.0 | 5.0 | 0.00 | 0.00 | 0.00 | 34 | 1017.0 | |
| 20260502120654 | 73 | 3.0 | 6.0 | 0.00 | 0.00 | 0.00 | 34 | 1017.0 | |
| 20260502115625 | 71 | 2.0 | 6.0 | 0.00 | 0.00 | 0.00 | 35 | 1017.2 | |
| 20260502114555 | 73 | 1.0 | 5.0 | 0.00 | 0.00 | 0.00 | 32 | 1017.3 | |
| 20260502113525 | 73 | 3.0 | 4.0 | 0.00 | 0.00 | 0.00 | 33 | 1017.4 | |
| 20260502112456 | 71 | 5.0 | 6.0 | 0.00 | 0.00 | 0.00 | 35 | 1017.4 | |
| 20260502111426 | 73 | 2.0 | 5.0 | 0.00 | 0.00 | 0.00 | 32 | 1017.4 | |
| 20260502110356 | 71 | 2.0 | 6.0 | 0.00 | 0.00 | 0.00 | 35 | 1017.5 | |
| 20260502105327 | 73 | 3.0 | 7.0 | 0.00 | 0.00 | 0.00 | 34 | 1017.7 | |
| 20260502104258 | 73 | 1.0 | 5.0 | 0.00 | 0.00 | 0.00 | 34 | 1017.8 | |
| 20260502103225 | 73 | 3.0 | 6.0 | 0.00 | 0.00 | 0.00 | 33 | 1018.0 | |
| 20260502102153 | 73 | 1.0 | 5.0 | 0.00 | 0.00 | 0.00 | 34 | 1018.0 | |
| 20260502101124 | 73 | 2.0 | 6.0 | 0.00 | 0.00 | 0.00 | 33 | 1018.0 | |
| 20260502090828 | 73 | 2.0 | 5.0 | 0.00 | 0.00 | 0.00 | 26 | 1018.4 | |
| 20260502071257 | 71 | 0.0 | 0.0 | 0.00 | 0.00 | 0.00 | 43 | 1018.5 | |
| 20260502070227 | 68 | 1.0 | 1.0 | 0.00 | 0.00 | 0.00 | 47 | 1018.5 | |
| 20260502065158 | 66 | 0.0 | 1.0 | 0.00 | 0.00 | 0.00 | 51 | 1018.4 | |
| 20260502064129 | 66 | 0.0 | 0.0 | 0.00 | 0.00 | 0.00 | 52 | 1018.4 | |
| 20260502063057 | 64 | 0.0 | 0.0 | 0.00 | 0.00 | 0.00 | 52 | 1018.4 | |
| 20260502062026 | 62 | 0.0 | 0.0 | 0.00 | 0.00 | 0.00 | 57 | 1018.3 | |
| 20260502060854 | 59 | 0.0 | 0.0 | 0.00 | 0.00 | 0.00 | 62 | 1018.3 | |
| 20260502055824 | 59 | 0.0 | 1.0 | 0.00 | 0.00 | 0.00 | 61 | 1018.4 | |
| 20260502054755 | 55 | 0.0 | 1.0 | 0.00 | 0.00 | 0.00 | 68 | 1018.4 | |
| 20260502053726 | 53 | 1.0 | 1.0 | 0.00 | 0.00 | 0.00 | 71 | 1018.2 | |
| 20260502052656 | 53 | 0.0 | 1.0 | 0.00 | 0.00 | 0.00 | 72 | 1018.3 | |
| 20260502051627 | 53 | 0.0 | 1.0 | 0.00 | 0.00 | 0.00 | 72 | 1018.3 | |
| 20260502050557 | 51 | 0.0 | 1.0 | 0.00 | 0.00 | 0.00 | 73 | 1018.3 | |
| 20260502045527 | 53 | 0.0 | 1.0 | 0.00 | 0.00 | 0.00 | 72 | 1018.1 | |
| 20260502044456 | 51 | 0.0 | 0.0 | 0.00 | 0.00 | 0.00 | 74 | 1018.2 | |
| 20260502043427 | 51 | 0.0 | 1.0 | 0.00 | 0.00 | 0.00 | 75 | 1018.2 | |
| 20260502042357 | 51 | 0.0 | 0.0 | 0.00 | 0.00 | 0.00 | 74 | 1018.2 | |
| 20260502041328 | 51 | 0.0 | 1.0 | 0.00 | 0.00 | 0.00 | 75 | 1018.1 | |
| 20260502040259 | 51 | 0.0 | 0.0 | 0.00 | 0.00 | 0.00 | 76 | 1018.1 | |
| 20260502035230 | 51 | 1.0 | 1.0 | 0.00 | 0.00 | 0.00 | 76 | 1018.1 | |
| 20260502034201 | 51 | 0.0 | 1.0 | 0.00 | 0.00 | 0.00 | 74 | 1018.0 | |
| 20260502033129 | 51 | 0.0 | 0.0 | 0.00 | 0.00 | 0.00 | 73 | 1018.0 | |
| 20260502032056 | 51 | 0.0 | 0.0 | 0.00 | 0.00 | 0.00 | 74 | 1018.1 | |
| 20260502031025 | 51 | 0.0 | 1.0 | 0.00 | 0.00 | 0.00 | 73 | 1018.1 | |
| 20260502025956 | 51 | 0.0 | 0.0 | 0.00 | 0.00 | 0.00 | 72 | 1018.2 | |
| 20260502024928 | 53 | 0.0 | 0.0 | 0.00 | 0.00 | 0.00 | 71 | 1018.1 | |
| 20260502023859 | 53 | 0.0 | 0.0 | 0.00 | 0.00 | 0.00 | 72 | 1018.1 | |
| 20260502022827 | 53 | 0.0 | 1.0 | 0.00 | 0.00 | 0.00 | 72 | 1018.2 | |
| 20260502021758 | 53 | 0.0 | 1.0 | 0.00 | 0.00 | 0.00 | 71 | 1018.2 | |
| 20260502020728 | 53 | 0.0 | 1.0 | 0.00 | 0.00 | 0.00 | 70 | 1018.2 | |
| 20260502015659 | 53 | 0.0 | 0.0 | 0.00 | 0.00 | 0.00 | 70 | 1018.0 | |
| 20260502014630 | 53 | 0.0 | 0.0 | 0.00 | 0.00 | 0.00 | 70 | 1018.1 | |
| 20260502013601 | 53 | 0.0 | 1.0 | 0.00 | 0.00 | 0.00 | 69 | 1018.0 | |
| 20260502012529 | 53 | 0.0 | 1.0 | 0.00 | 0.00 | 0.00 | 68 | 1018.0 | |
| 20260502011500 | 53 | 0.0 | 1.0 | 0.00 | 0.00 | 0.00 | 68 | 1017.8 | |
| 20260502010430 | 53 | 0.0 | 1.0 | 0.00 | 0.00 | 0.00 | 69 | 1017.7 | |
| 20260502005357 | 53 | 0.0 | 1.0 | 0.00 | 0.00 | 0.00 | 68 | 1017.8 | |
| 20260502004328 | 53 | 0.0 | 1.0 | 0.00 | 0.00 | 0.00 | 68 | 1017.8 | |
| 20260502003257 | 55 | 0.0 | 1.0 | 0.00 | 0.00 | 0.00 | 68 | 1017.9 | |
| 20260502002228 | 55 | 0.0 | 0.0 | 0.00 | 0.00 | 0.00 | 68 | 1018.0 | |
| 20260502001155 | 53 | 0.0 | 1.0 | 0.00 | 0.00 | 0.00 | 68 | 1017.9 | |
| 20260502000119 | 53 | 0.0 | 1.0 | 0.00 | 0.00 | 0.00 | 68 | 1017.9 | |
| 20260501235049 | 55 | 0.0 | 0.0 | 0.00 | 0.00 | 0.00 | 68 | 1018.0 |